Temperature
19 16 16 17 17 18 17 17 16 17 17 16 16 15 15 15 15 15 15 15 16 16 16 16 16 16 16 16 16 16 16 16 16 16 16 16 15 15 15 15 15 14 14 14
16 17 17 18 17 17 17 17 16 17 17 16 15 15 15 15 14 15 15 15 16 16 16 16 16 16 16 16 16 16 16 16 16 16 16 15 15 15 15 15 14 14 14 14
17 18 18 18 17 17 17 16 17 16 16 16 16 15 15 15 15 15 15 16 16 16 16 16 16 16 16 16 16 16 16 16 16 15 15 15 15 15 15 14 14 14 14 14
17 18 18 18 17 17 17 17 17 17 16 15 16 14 14 14 14 14 14 15 15 16 16 16 16 16 16 16 16 16 16 15 15 15 15 15 15 15 14 14 14 14 14 14
17 18 18 18 18 18 17 17 17 16 15 14 14 14 14 14 14 13 14 15 15 16 16 16 16 16 16 16 16 16 15 15 15 15 15 15 14 14 14 14 14 14 14 14
17 18 18 18 18 18 17 16 15 14 14 14 14 14 14 13 14 14 14 14 15 15 16 16 16 16 16 16 16 15 15 15 15 15 14 14 14 14 14 14 14 14 14 14
17 17 18 18 17 17 16 15 14 15 14 14 14 14 13 14 14 14 14 14 15 15 15 15 15 15 16 16 16 15 15 15 15 15 14 14 14 14 14 14 14 14 13 13
16 16 17 17 17 16 16 15 14 15 14 13 14 13 14 14 14 15 15 15 15 15 15 15 15 15 15 15 15 15 15 15 15 14 14 14 14 13 13 13 13 13 13 13
14 15 17 17 17 16 15 14 14 13 14 13 13 13 14 14 14 14 14 14 14 14 15 15 15 15 15 15 15 15 15 15 14 14 14 14 14 13 13 13 13 13 13 13
15 15 16 16 17 16 15 14 12 13 13 13 14 14 13 14 14 13 12 13 14 14 14 14 15 15 15 15 15 14 14 14 14 14 14 14 13 13 13 13 13 13 12 12
14 14 15 15 16 15 15 14 13 12 12 13 13 13 14 13 13 13 12 13 14 14 14 14 14 14 14 14 14 14 14 14 14 14 13 13 13 13 13 13 12 12 12 12
13 12 13 14 15 15 15 14 13 13 13 12 12 13 14 13 13 13 13 13 14 14 14 14 14 14 14 14 13 13 13 13 13 13 13 13 13 13 12 12 12 12 12 12
13 12 13 14 14 14 14 14 13 12 11 11 12 13 13 12 13 13 13 13 13 13 14 14 14 13 13 13 13 13 13 13 13 13 12 12 12 12 12 12 12 12 11 11
13 11 12 13 13 13 14 14 13 12 12 11 11 13 13 13 12 13 13 13 13 13 13 13 13 13 13 13 13 12 12 12 12 12 12 12 12 12 11 11 11 11 11 11
12 12 12 12 13 13 13 13 13 12 12 12 12 12 13 12 12 12 13 13 12 12 12 13 13 12 12 12 12 12 12 12 12 12 11 11 11 11 11 11 11 11 11 10
11 12 12 13 13 13 13 13 12 12 12 12 12 12 12 12 12 12 12 12 11 12 12 12 12 12 12 12 12 11 11 11 11 11 11 11 11 11 10 10 10 10 10 10
10 11 11 11 12 13 12 12 12 12 12 12 12 12 11 11 11 11 12 12 12 12 12 12 12 12 12 11 11 11 11 11 11 11 10 10 10 10 10 10 10 10 10 9
10 10 9 10 12 12 12 12 12 12 12 11 12 11 11 11 12 12 12 12 12 12 12 12 12 11 11 11 11 11 11 10 10 10 10 10 10 10 9 9 9 9 9 9
9 9 9 9 10 11 12 12 11 12 12 11 11 11 11 11 11 11 12 12 12 12 12 12 11 11 11 11 10 10 10 10 10 9 9 9 9 9 9 9 9 9 8 8
9 9 9 9 11 11 12 12 12 12 11 11 11 10 10 10 9 10 12 12 12 12 12 11 11 11 10 10 10 10 10 9 9 9 9 9 8 8 8 8 8 8 8 8
9 8 8 9 9 10 11 11 12 12 11 12 11 11 10 9 10 12 12 12 11 11 11 11 11 10 10 10 9 9 9 9 9 8 8 8 8 8 7 7 7 7 7 7
9 9 8 8 9 10 10 10 10 11 12 12 12 12 11 11 11 11 11 11 11 11 11 10 10 10 9 9 9 9 8 8 8 8 8 8 7 7 7 7 7 7 6 6
8 8 8 8 10 10 10 11 12 12 12 12 12 12 11 11 11 11 11 11 11 10 10 10 10 9 9 9 9 8 8 8 8 7 7 7 7 7 6 6 6 6 6 6
7 7 7 7 8 9 10 11 11 12 12 12 12 12 11 11 11 11 10 10 10 10 10 9 9 9 9 8 8 8 8 7 7 7 7 6 6 6 6 6 6 5 5 5
7 7 7 7 7 9 10 11 11 11 11 11 11 11 11 11 10 10 10 10 9 9 9 9 9 8 8 8 7 7 7 7 7 7 6 6 6 5 5 5 5 5 5 5
6 7 7 8 9 8 10 11 11 11 11 11 11 11 11 10 10 10 10 9 9 9 8 8 8 8 7 7 7 7 6 6 6 6 6 5 5 5 5 5 5 4 4 4
Wind_Speed
4 5 2 5 5 4 5 4 3 3 2 3 3 3 4 1 3 3 3 3 3 4 3 1 1 2 2 3 3 3 3 2 3 2 2 2 1 1 1 2 2 2 2 3
5 1 4 3 3 4 4 3 2 1 2 4 2 3 4 2 3 5 6 6 5 3 0 0 1 2 2 2 2 2 2 2 2 2 1 2 1 1 0 2 2 2 2 2
4 3 2 4 3 3 3 5 5 3 1 2 1 4 3 2 1 1 2 4 4 5 4 3 2 2 2 2 3 3 2 2 2 3 3 3 3 2 2 2 1 2 1 2
2 2 2 3 3 4 4 4 5 5 3 2 1 3 5 3 2 2 3 4 4 5 4 4 4 3 3 3 3 2 2 2 3 4 4 5 2 1 1 1 1 1 2 1
2 1 3 3 4 5 4 1 3 3 4 1 1 1 6 2 3 5 5 5 5 5 5 5 5 5 4 3 3 3 3 2 2 3 4 4 2 1 0 0 1 1 2 2
3 1 3 4 1 3 4 5 5 5 4 1 3 4 5 3 5 4 4 4 3 4 5 5 4 3 2 2 2 2 3 2 2 3 3 3 3 2 1 0 0 1 1 1
4 3 2 2 2 3 5 5 3 3 2 4 2 3 6 6 5 5 5 4 3 3 4 4 4 3 3 3 3 3 3 2 2 3 3 3 3 3 2 2 2 2 1 1
0 5 3 1 4 4 4 7 6 4 4 3 1 4 5 4 3 2 2 3 2 3 3 4 5 4 4 4 3 3 4 3 2 3 2 2 2 2 2 2 2 3 3 3
3 5 4 2 1 7 5 3 5 5 2 1 4 4 6 2 2 1 2 3 3 3 3 3 3 3 3 4 4 5 4 3 3 3 2 1 1 2 2 1 1 2 2 1
5 3 4 3 4 4 4 7 5 4 3 3 4 4 4 5 4 1 1 3 3 2 2 3 3 3 2 2 3 4 4 4 4 3 2 1 1 2 1 1 1 1 2 1
4 3 4 3 2 3 3 3 4 4 4 5 3 6 4 6 5 5 5 5 5 4 3 3 3 2 2 2 2 2 2 2 2 2 2 2 1 1 1 1 2 2 1 1
3 4 2 5 4 2 3 5 6 4 4 4 3 6 4 4 4 4 4 4 3 4 3 3 2 2 2 2 2 1 1 1 2 2 2 2 1 1 1 1 2 1 1 1
5 4 1 5 4 2 1 2 3 4 4 5 4 6 3 2 2 2 3 3 2 2 2 2 2 2 2 2 2 1 1 1 1 2 2 1 1 1 1 2 1 1 1 1
5 4 6 7 6 3 2 2 3 5 4 5 7 7 6 4 4 3 2 2 3 3 2 2 2 2 2 1 1 1 1 1 1 1 1 1 1 2 2 2 1 1 1 1
4 3 4 5 4 3 4 4 4 6 7 7 7 8 9 6 5 4 3 2 3 2 2 3 3 2 2 1 1 1 0 0 1 1 1 1 1 1 1 1 1 1 1 2
3 3 2 3 3 3 4 6 6 6 5 6 5 7 6 4 1 2 3 4 4 4 4 3 3 3 3 2 2 1 0 0 1 1 1 1 0 0 1 1 1 1 1 2
2 4 3 4 4 2 6 7 7 5 5 6 8 8 3 2 3 4 4 5 5 5 4 4 4 4 3 3 3 2 2 1 1 1 0 0 0 1 1 1 1 1 2 2
4 4 3 1 1 5 7 3 5 6 6 6 5 3 3 4 3 3 4 5 5 5 4 4 4 3 2 2 2 2 2 2 2 1 0 1 1 1 2 1 2 2 2 2
4 5 3 3 3 6 6 3 3 5 5 4 6 4 2 1 2 3 2 3 5 5 4 4 3 3 2 2 2 3 2 2 1 0 1 1 1 1 2 2 2 2 2 2
3 3 4 3 3 5 6 3 1 3 4 4 4 4 2 2 0 4 3 2 2 2 2 2 2 2 2 1 3 4 2 1 1 1 1 1 1 1 1 2 2 2 2 2
2 2 3 4 5 7 5 2 3 3 6 3 3 3 4 4 5 3 1 1 1 1 1 2 3 3 2 2 4 3 2 1 2 1 0 1 1 1 1 1 2 2 2 3
5 4 4 4 4 7 3 4 5 5 2 1 2 3 4 4 2 1 1 1 1 1 1 3 3 2 2 3 3 3 2 2 0 1 1 1 2 2 2 2 2 2 2 2
4 5 4 6 6 3 1 3 2 2 1 2 2 3 3 2 2 1 1 1 1 2 2 2 4 3 2 2 3 3 2 1 1 1 0 1 2 2 2 1 2 3 2 2
3 1 2 3 5 5 4 3 3 2 3 3 3 3 3 3 3 2 2 2 1 2 2 2 4 3 2 1 1 2 1 1 2 1 1 1 1 2 2 2 2 2 2 3
5 4 3 5 6 5 5 4 4 3 3 3 2 2 4 4 3 3 3 3 3 2 2 3 4 3 2 1 1 0 1 2 1 1 1 1 1 1 2 2 2 3 3 4
4 5 5 7 6 5 6 5 3 3 4 4 3 2 2 3 4 3 3 3 3 3 2 3 3 3 2 2 1 1 1 2 2 1 1 1 2 2 2 2 4 5 5 7
Wind_Direction
43 77 164 204 188 167 153 157 195 232 204 143 176 236 266 199 167 187 203 208 212 228 247 200 141 117 102 93 92 102 94 89 107 103 118 129 134 74 43 34 58 84 95 100
46 316 236 175 147 134 141 151 198 270 144 156 186 265 266 213 202 202 201 204 213 229 288 121 128 123 136 135 130 119 119 116 129 133 134 136 134 123 116 26 38 57 89 98
166 245 167 135 131 148 183 181 194 196 82 82 118 308 289 276 239 220 210 206 203 201 199 193 180 183 161 159 170 163 161 140 112 108 94 70 56 39 31 22 16 9 68 90
217 268 140 147 185 165 236 217 180 163 140 256 166 274 287 258 280 258 235 217 218 211 197 189 188 189 192 199 181 159 157 137 118 111 117 118 114 135 243 250 266 349 29 52
256 191 161 195 219 179 211 141 138 144 145 72 21 189 288 292 261 261 244 224 222 211 199 198 197 196 195 180 164 152 141 130 122 127 134 135 134 155 11 35 35 357 349 4
248 233 188 206 208 159 132 81 63 56 81 281 234 182 283 252 235 253 242 235 231 212 201 199 193 176 169 147 142 135 132 135 132 134 143 149 150 142 116 47 272 288 294 313
330 327 291 153 99 64 92 94 42 1 0 251 211 190 249 255 237 225 223 225 226 201 188 184 177 169 168 160 161 157 149 160 156 149 161 178 181 181 194 218 228 227 243 256
260 296 279 201 170 173 165 143 157 200 225 272 233 226 250 265 276 254 202 180 156 157 172 183 190 183 181 180 174 169 173 185 176 173 189 187 185 196 217 230 234 230 231 237
183 262 295 278 184 141 146 176 164 140 158 240 267 276 297 309 333 36 101 111 150 177 177 181 181 179 178 179 184 183 181 185 183 188 188 175 183 204 225 240 241 247 243 251
165 244 298 315 64 37 135 143 107 128 163 247 280 266 255 267 264 269 200 189 199 180 174 185 183 183 182 179 182 178 179 189 191 181 182 180 203 220 222 213 256 271 282 294
137 175 308 6 165 194 97 112 121 135 158 168 245 266 232 229 226 220 225 216 200 191 193 201 200 181 157 132 118 139 168 170 179 185 174 157 187 198 162 214 249 250 274 287
142 132 250 269 272 217 165 165 148 163 215 182 191 263 284 245 238 224 232 227 208 194 192 194 187 149 127 124 121 121 132 156 195 187 162 169 184 144 146 245 263 257 243 282
143 120 41 336 339 356 147 168 162 139 136 166 186 255 309 341 301 251 225 216 197 181 179 165 160 161 166 166 159 155 169 187 178 151 155 170 185 184 214 244 260 259 252 284
128 136 175 206 228 216 239 221 164 147 173 209 220 243 281 293 286 279 244 207 182 182 183 176 184 187 185 185 175 169 195 186 141 125 140 183 222 222 229 236 242 251 249 256
119 176 214 233 240 206 222 234 201 195 201 205 229 229 253 253 248 251 233 185 169 187 199 196 195 195 181 172 182 168 187 178 137 132 145 241 254 234 233 250 265 271 268 273
116 174 195 255 246 234 252 248 224 226 220 220 238 257 261 264 254 236 211 187 198 213 215 212 203 190 190 193 196 176 184 226 142 153 194 251 343 335 282 280 272 280 289 289
151 148 157 249 282 325 265 234 209 216 216 195 222 243 248 279 255 231 221 207 213 218 218 212 208 203 204 205 191 183 187 144 128 144 168 332 355 339 319 324 335 295 282 289
151 144 158 207 77 238 250 243 198 210 240 217 219 232 214 237 259 251 220 205 216 213 209 212 204 200 204 197 167 141 126 123 122 115 353 335 356 340 335 342 327 307 291 281
166 149 141 150 222 270 294 270 181 191 261 234 216 225 221 96 27 321 250 205 212 212 208 206 198 188 175 169 143 117 107 103 100 102 298 297 295 314 322 314 303 305 305 294
83 115 134 150 204 243 256 273 188 128 276 270 204 215 192 110 54 274 262 216 220 211 190 170 137 121 134 147 127 119 117 115 190 246 271 290 294 297 293 296 300 308 303 290
106 120 169 191 226 260 264 271 115 152 254 275 200 206 182 196 219 253 262 245 203 177 157 137 127 138 161 146 129 130 137 213 240 243 330 343 333 305 286 309 316 321 325 324
182 186 200 176 207 255 269 132 173 220 263 201 195 197 194 217 243 268 254 218 158 131 109 138 137 134 128 132 139 150 203 238 252 87 47 342 329 323 336 329 325 328 330 324
202 198 197 197 217 261 232 208 234 168 177 222 206 229 199 208 234 261 263 224 191 167 160 149 138 130 126 144 156 176 215 200 129 93 6 318 331 335 335 325 327 327 316 304
270 180 177 247 268 277 273 272 278 239 223 240 229 223 206 215 225 228 220 217 204 188 169 146 135 143 163 174 179 190 200 174 136 151 262 299 312 320 329 322 313 310 302 300
235 182 213 251 278 305 288 254 257 272 261 258 263 234 212 206 224 221 215 214 201 190 175 161 163 172 192 187 204 198 160 141 141 188 249 289 293 290 310 311 295 291 274 279
212 196 204 239 240 229 262 270 265 255 258 253 259 269 251 211 217 215 209 207 194 184 174 164 171 175 189 189 203 223 184 157 161 209 254 264 277 289 300 312 321 314 311 315
Height
1506 1513 1518 1517 1516 1518 1521 1526 1529 1526 1523 1526 1529 1529 1526 1525 1526 1526 1526 1527 1528 1528 1530 1531 1532 1533 1534 1534 1535 1535 1536 1536 1537 1537 1538 1538 1539 1540 1540 1540 1540 1540 1540 1539
1513 1516 1512 1512 1514 1517 1520 1526 1528 1525 1522 1525 1529 1529 1525 1524 1524 1524 1524 1525 1526 1527 1528 1529 1530 1531 1532 1533 1533 1534 1535 1535 1536 1536 1537 1538 1539 1539 1540 1540 1540 1540 1539 1539
1514 1513 1510 1512 1516 1519 1521 1524 1525 1526 1525 1525 1528 1530 1526 1523 1522 1522 1523 1523 1524 1525 1526 1527 1528 1530 1531 1531 1532 1533 1534 1535 1535 1536 1536 1537 1538 1539 1539 1539 1539 1539 1539 1538
1512 1510 1510 1513 1515 1517 1523 1517 1519 1523 1529 1535 1531 1542 1529 1524 1523 1521 1521 1521 1521 1523 1524 1525 1527 1528 1529 1530 1531 1532 1533 1534 1535 1535 1535 1536 1536 1537 1537 1538 1538 1538 1538 1537
1512 1510 1511 1513 1513 1514 1516 1514 1518 1522 1528 1536 1535 1540 1534 1524 1524 1520 1518 1518 1519 1520 1522 1523 1524 1526 1527 1529 1530 1531 1532 1533 1534 1534 1535 1535 1536 1536 1537 1537 1537 1537 1537 1536
1510 1508 1508 1509 1509 1510 1513 1518 1523 1529 1534 1543 1537 1541 1537 1527 1520 1517 1515 1515 1516 1517 1519 1521 1523 1524 1526 1527 1529 1530 1530 1531 1532 1533 1534 1534 1534 1535 1535 1535 1535 1535 1535 1535
1514 1510 1507 1507 1511 1512 1515 1527 1541 1541 1547 1545 1534 1537 1533 1518 1514 1513 1512 1513 1513 1515 1517 1518 1520 1522 1523 1525 1527 1528 1529 1530 1531 1532 1532 1532 1533 1533 1533 1533 1533 1533 1533 1532
1523 1522 1510 1507 1510 1514 1517 1524 1540 1546 1548 1544 1536 1537 1524 1513 1511 1510 1510 1511 1512 1513 1515 1516 1518 1520 1522 1523 1524 1526 1527 1528 1529 1530 1530 1531 1531 1531 1531 1532 1532 1531 1531 1530
1524 1522 1509 1506 1506 1509 1517 1523 1524 1536 1540 1544 1539 1531 1519 1511 1510 1509 1509 1510 1511 1512 1513 1515 1516 1518 1520 1521 1523 1524 1525 1526 1527 1528 1528 1529 1529 1529 1529 1529 1530 1529 1529 1528
1516 1521 1512 1508 1507 1509 1511 1518 1529 1536 1544 1546 1538 1533 1526 1514 1511 1510 1509 1509 1510 1511 1512 1514 1515 1516 1517 1519 1521 1522 1523 1524 1525 1526 1526 1526 1527 1527 1527 1527 1527 1526 1526 1526
1514 1521 1518 1513 1513 1515 1517 1520 1525 1534 1536 1543 1544 1534 1513 1511 1508 1508 1507 1507 1508 1509 1511 1512 1513 1514 1516 1517 1519 1520 1521 1522 1523 1523 1524 1524 1524 1525 1524 1524 1524 1524 1523 1523
1514 1522 1525 1518 1511 1510 1511 1516 1522 1530 1534 1537 1539 1532 1507 1506 1505 1505 1505 1506 1507 1508 1509 1511 1512 1513 1514 1515 1516 1518 1519 1520 1521 1521 1522 1522 1522 1522 1521 1521 1521 1521 1521 1520
1513 1521 1529 1525 1521 1515 1514 1515 1517 1523 1530 1537 1537 1527 1507 1505 1504 1504 1504 1505 1505 1507 1508 1509 1511 1511 1512 1514 1515 1516 1517 1517 1518 1519 1519 1519 1519 1519 1519 1519 1519 1518 1518 1517
1509 1519 1524 1526 1521 1516 1516 1515 1516 1521 1528 1531 1528 1519 1509 1505 1504 1503 1503 1503 1504 1506 1507 1508 1509 1510 1511 1512 1513 1514 1515 1516 1516 1516 1516 1516 1516 1516 1516 1516 1516 1515 1515 1514
1509 1517 1516 1515 1512 1513 1513 1513 1514 1516 1517 1520 1516 1514 1506 1504 1502 1501 1501 1502 1503 1504 1505 1506 1507 1508 1509 1510 1511 1512 1513 1513 1514 1514 1514 1514 1514 1514 1513 1513 1513 1512 1511 1511
1510 1514 1515 1514 1510 1511 1512 1510 1510 1511 1510 1512 1510 1509 1501 1501 1500 1500 1500 1500 1501 1501 1502 1504 1505 1506 1506 1507 1509 1509 1510 1511 1512 1512 1512 1512 1511 1511 1510 1510 1509 1508 1508 1507
1512 1514 1518 1519 1512 1510 1514 1506 1506 1507 1505 1505 1507 1503 1499 1500 1499 1498 1498 1498 1498 1499 1500 1501 1502 1503 1504 1505 1506 1507 1508 1509 1509 1509 1509 1509 1508 1508 1507 1507 1506 1505 1504 1503
1511 1514 1519 1520 1517 1521 1507 1498 1499 1501 1500 1499 1498 1497 1497 1497 1497 1496 1496 1496 1496 1497 1498 1499 1500 1501 1502 1504 1504 1505 1506 1506 1506 1507 1507 1506 1506 1505 1504 1503 1502 1502 1500 1499
1506 1511 1519 1523 1521 1513 1503 1497 1497 1499 1499 1495 1495 1495 1495 1495 1495 1495 1495 1495 1495 1496 1497 1498 1499 1500 1501 1502 1502 1503 1503 1504 1504 1504 1504 1504 1503 1502 1501 1500 1499 1498 1497 1496
1507 1508 1516 1521 1517 1515 1502 1494 1492 1496 1499 1492 1492 1492 1494 1494 1498 1495 1493 1493 1494 1495 1495 1496 1496 1497 1498 1499 1500 1501 1501 1501 1502 1502 1502 1501 1500 1499 1498 1497 1496 1495 1494 1493
1511 1513 1516 1517 1516 1508 1496 1493 1493 1503 1500 1491 1490 1490 1492 1492 1493 1492 1491 1491 1492 1493 1493 1494 1494 1495 1496 1497 1498 1498 1498 1499 1499 1500 1499 1499 1498 1497 1496 1495 1494 1492 1491 1490
1509 1512 1514 1515 1515 1509 1493 1493 1496 1495 1490 1489 1489 1489 1489 1489 1490 1490 1490 1490 1490 1490 1491 1491 1492 1493 1494 1495 1495 1495 1496 1497 1497 1497 1496 1496 1495 1494 1493 1492 1490 1489 1487 1486
1505 1504 1504 1505 1502 1494 1491 1491 1490 1489 1489 1488 1488 1488 1487 1487 1487 1488 1488 1488 1488 1488 1489 1489 1490 1490 1491 1492 1493 1493 1494 1494 1494 1494 1493 1493 1492 1491 1490 1489 1487 1485 1484 1483
1501 1499 1500 1500 1494 1491 1489 1489 1489 1488 1488 1487 1486 1486 1486 1485 1485 1485 1485 1485 1486 1486 1486 1487 1487 1488 1488 1489 1490 1491 1491 1491 1491 1490 1490 1490 1489 1488 1487 1486 1484 1482 1481 1479
1497 1497 1498 1496 1492 1489 1486 1486 1486 1486 1485 1485 1484 1484 1483 1483 1483 1483 1483 1483 1483 1483 1484 1484 1485 1485 1486 1486 1487 1488 1488 1488 1488 1487 1487 1486 1486 1485 1483 1482 1481 1479 1478 1477
1493 1493 1494 1491 1487 1487 1485 1484 1484 1483 1482 1482 1481 1480 1480 1480 1480 1480 1480 1480 1480 1481 1481 1482 1482 1483 1484 1484 1484 1485 1485 1485 1484 1484 1483 1483 1482 1481 1480 1478 1477 1476 1476 1474